When you browse on this site, cookies collect data to enhance your experience and personalize the content and advertising you see.
Visit our Privacy Policy to learn more. By continuing to use the site, you agree to this use of cookies and data.
  • In Österreich
  • Länderverzeichnis
  • Für 7 Tage
  • Wassertemperatur
  • Satellitenkarten
  • Wetterkarte
  • News
  • Widgets
  • user-avatar
    Anmelden

    Stündliche Wetter Copperas Cove

    Heute, 22 April, Montag

    Zeit Temperatur Niederschläge Wind Luftdruck Luftfeuchtigkeit
    00:00 +18°C° 0 mm 7 m/S 732 mmHg 89%
    01:00 +17°C° 0 mm 6 m/S 732 mmHg 91%
    02:00 +17°C° 0 mm 6 m/S 732 mmHg 92%
    03:00 +17°C° 0 mm 6 m/S 732 mmHg 91%
    04:00 +19°C° 0 mm 6 m/S 732 mmHg 90%
    05:00 +19°C° 0 mm 6 m/S 732 mmHg 89%
    06:00 +18°C° 0 mm 7 m/S 733 mmHg 86%
    07:00 +20°C° 0 mm 7 m/S 733 mmHg 84%
    08:00 +21°C° 0 mm 8 m/S 734 mmHg 82%
    09:00 +22°C° 0 mm 7 m/S 734 mmHg 77%
    10:00 +23°C° 0 mm 7 m/S 734 mmHg 72%
    11:00 +24°C° 0 mm 7 m/S 734 mmHg 68%
    12:00 +26°C° 0 mm 7 m/S 733 mmHg 65%
    13:00 +27°C° 0 mm 7 m/S 733 mmHg 62%
    14:00 +28°C° 0 mm 7 m/S 733 mmHg 60%
    15:00 +27°C° 0 mm 6 m/S 733 mmHg 64%
    16:00 +26°C° 0 mm 5 m/S 732 mmHg 68%
    17:00 +25°C° 0 mm 4 m/S 732 mmHg 72%
    18:00 +25°C° 0 mm 5 m/S 732 mmHg 74%
    19:00 +23°C° 0 mm 6 m/S 733 mmHg 77%
    20:00 +22°C° 0 mm 7 m/S 733 mmHg 79%
    21:00 +21°C° 0 mm 7 m/S 733 mmHg 82%
    22:00 +20°C° 0 mm 6 m/S 733 mmHg 85%
    23:00 +20°C° 0 mm 6 m/S 733 mmHg 88%

    Morgen, 23 April, Dienstag

    Zeit Temperatur Niederschläge Wind Luftdruck Luftfeuchtigkeit
    00:00 +20°C° 0 mm 6 m/S 732 mmHg 87%
    01:00 +20°C° 0 mm 5 m/S 732 mmHg 87%
    02:00 +20°C° 0 mm 5 m/S 731 mmHg 87%
    03:00 +20°C° 0.1 mm 4 m/S 732 mmHg 89%
    04:00 +20°C° 0.1 mm 4 m/S 732 mmHg 91%
    05:00 +20°C° 0.1 mm 3 m/S 732 mmHg 93%
    06:00 +20°C° 0.1 mm 3 m/S 732 mmHg 91%
    07:00 +21°C° 0.1 mm 4 m/S 733 mmHg 89%
    08:00 +21°C° 0.1 mm 4 m/S 733 mmHg 88%
    09:00 +22°C° 0.1 mm 5 m/S 733 mmHg 87%
    10:00 +22°C° 0.1 mm 5 m/S 733 mmHg 86%
    11:00 +22°C° 0.1 mm 6 m/S 733 mmHg 85%
    12:00 +23°C° 0.2 mm 6 m/S 733 mmHg 81%
    13:00 +24°C° 0.2 mm 6 m/S 732 mmHg 77%
    14:00 +26°C° 0.2 mm 6 m/S 732 mmHg 73%
    15:00 +26°C° 0.1 mm 6 m/S 731 mmHg 74%
    16:00 +24°C° 0.1 mm 6 m/S 731 mmHg 75%
    17:00 +24°C° 0.1 mm 6 m/S 731 mmHg 76%
    18:00 +23°C° 0 mm 6 m/S 731 mmHg 82%
    19:00 +22°C° 0 mm 5 m/S 731 mmHg 87%
    20:00 +20°C° 0 mm 5 m/S 731 mmHg 93%
    21:00 +20°C° 0 mm 5 m/S 731 mmHg 94%
    22:00 +20°C° 0 mm 4 m/S 732 mmHg 95%
    23:00 +20°C° 0 mm 4 m/S 732 mmHg 95%

    übermorgen, 24 April, Mittwoch

    Zeit Temperatur Niederschläge Wind Luftdruck Luftfeuchtigkeit
    00:00 +20°C° 0.1 mm 4 m/S 731 mmHg 95%
    01:00 +19°C° 0.1 mm 5 m/S 731 mmHg 95%
    02:00 +19°C° 0.1 mm 5 m/S 731 mmHg 95%
    03:00 +19°C° 0.2 mm 4 m/S 731 mmHg 95%
    04:00 +19°C° 0.2 mm 4 m/S 731 mmHg 95%
    05:00 +19°C° 0.2 mm 3 m/S 731 mmHg 94%
    06:00 +20°C° 0.4 mm 5 m/S 731 mmHg 91%
    07:00 +21°C° 0.4 mm 6 m/S 731 mmHg 87%
    08:00 +22°C° 0.4 mm 7 m/S 730 mmHg 83%
    09:00 +22°C° 1.6 mm 8 m/S 730 mmHg 82%
    10:00 +22°C° 1.6 mm 8 m/S 730 mmHg 82%
    11:00 +23°C° 1.6 mm 9 m/S 729 mmHg 81%
    12:00 +23°C° 5.7 mm 9 m/S 729 mmHg 81%
    13:00 +23°C° 5.7 mm 9 m/S 728 mmHg 82%
    14:00 +23°C° 5.7 mm 10 m/S 727 mmHg 83%
    15:00 +22°C° 7.6 mm 9 m/S 727 mmHg 83%
    16:00 +22°C° 7.6 mm 9 m/S 727 mmHg 84%
    17:00 +22°C° 7.6 mm 8 m/S 726 mmHg 85%
    18:00 +21°C° 3.1 mm 7 m/S 727 mmHg 86%
    19:00 +20°C° 3.1 mm 5 m/S 727 mmHg 88%
    20:00 +19°C° 3.1 mm 4 m/S 727 mmHg 89%
    21:00 +18°C° 0.1 mm 4 m/S 727 mmHg 89%
    22:00 +17°C° 0.1 mm 5 m/S 727 mmHg 89%
    23:00 +16°C° 0.1 mm 5 m/S 727 mmHg 90%

    25 April, Donnerstag

    Zeit Temperatur Niederschläge Wind Luftdruck Luftfeuchtigkeit
    00:00 +15°C° 0.1 mm 5 m/S 727 mmHg 90%
    01:00 +15°C° 0.1 mm 5 m/S 727 mmHg 89%
    02:00 +14°C° 0.1 mm 5 m/S 727 mmHg 89%
    03:00 +14°C° 0 mm 5 m/S 727 mmHg 90%
    04:00 +14°C° 0 mm 5 m/S 727 mmHg 91%
    05:00 +14°C° 0 mm 5 m/S 727 mmHg 91%
    06:00 +16°C° 0 mm 7 m/S 728 mmHg 87%
    07:00 +17°C° 0 mm 8 m/S 729 mmHg 82%
    08:00 +19°C° 0 mm 10 m/S 729 mmHg 78%
    09:00 +21°C° 0.1 mm 9 m/S 729 mmHg 76%
    10:00 +21°C° 0.1 mm 9 m/S 730 mmHg 75%
    11:00 +22°C° 0.1 mm 9 m/S 730 mmHg 74%
    12:00 +22°C° 0.3 mm 9 m/S 730 mmHg 71%
    13:00 +23°C° 0.3 mm 10 m/S 729 mmHg 68%
    14:00 +23°C° 0.3 mm 10 m/S 729 mmHg 66%
    15:00 +23°C° 0 mm 9 m/S 729 mmHg 68%
    16:00 +22°C° 0 mm 9 m/S 730 mmHg 71%
    17:00 +21°C° 0 mm 8 m/S 730 mmHg 73%
    18:00 +20°C° 0 mm 7 m/S 731 mmHg 76%
    19:00 +20°C° 0 mm 6 m/S 732 mmHg 79%
    20:00 +19°C° 0 mm 5 m/S 732 mmHg 82%
    21:00 +17°C° 0 mm 5 m/S 733 mmHg 84%
    22:00 +17°C° 0 mm 5 m/S 733 mmHg 86%
    23:00 +17°C° 0 mm 5 m/S 733 mmHg 88%

    26 April, Freitag

    Zeit Temperatur Niederschläge Wind Luftdruck Luftfeuchtigkeit
    00:00 +16°C° 0 mm 5 m/S 733 mmHg 87%
    01:00 +16°C° 0 mm 5 m/S 733 mmHg 87%
    02:00 +16°C° 0 mm 6 m/S 733 mmHg 87%
    03:00 +15°C° 0 mm 6 m/S 733 mmHg 86%
    04:00 +15°C° 0 mm 6 m/S 733 mmHg 85%
    05:00 +15°C° 0 mm 6 m/S 734 mmHg 84%
    06:00 +16°C° 0 mm 7 m/S 734 mmHg 79%
    07:00 +18°C° 0 mm 7 m/S 735 mmHg 73%
    08:00 +21°C° 0 mm 8 m/S 736 mmHg 67%
    09:00 +22°C° 0 mm 7 m/S 736 mmHg 63%
    10:00 +23°C° 0 mm 7 m/S 736 mmHg 59%
    11:00 +26°C° 0 mm 6 m/S 736 mmHg 55%
    12:00 +26°C° 0 mm 6 m/S 735 mmHg 53%
    13:00 +27°C° 0 mm 5 m/S 735 mmHg 52%
    14:00 +28°C° 0 mm 5 m/S 735 mmHg 50%
    15:00 +27°C° 0 mm 4 m/S 735 mmHg 53%
    16:00 +27°C° 0 mm 3 m/S 734 mmHg 57%
    17:00 +26°C° 0 mm 3 m/S 734 mmHg 60%
    18:00 +24°C° 0 mm 2 m/S 735 mmHg 66%
    19:00 +21°C° 0 mm 2 m/S 735 mmHg 71%
    20:00 +20°C° 0 mm 1 m/S 735 mmHg 77%
    21:00 +19°C° 0 mm 1 m/S 735 mmHg 80%
    22:00 +19°C° 0 mm 1 m/S 735 mmHg 83%
    23:00 +18°C° 0 mm 1 m/S 734 mmHg 86%

    27 April, Samstag

    Zeit Temperatur Niederschläge Wind Luftdruck Luftfeuchtigkeit
    00:00 +18°C° 0 mm 1 m/S 734 mmHg 87%
    01:00 +16°C° 0 mm 1 m/S 734 mmHg 88%
    02:00 +16°C° 0 mm 1 m/S 733 mmHg 89%
    03:00 +16°C° 0 mm 1 m/S 733 mmHg 89%
    04:00 +16°C° 0 mm 1 m/S 733 mmHg 89%
    05:00 +16°C° 0 mm 1 m/S 733 mmHg 89%
    06:00 +18°C° 0 mm 2 m/S 734 mmHg 81%
    07:00 +20°C° 0 mm 2 m/S 734 mmHg 74%
    08:00 +24°C° 0 mm 3 m/S 734 mmHg 67%
    09:00 +25°C° 0 mm 3 m/S 734 mmHg 61%
    10:00 +27°C° 0 mm 3 m/S 734 mmHg 55%
    11:00 +28°C° 0 mm 3 m/S 733 mmHg 49%
    12:00 +29°C° 0 mm 3 m/S 733 mmHg 46%
    13:00 +30°C° 0 mm 3 m/S 732 mmHg 43%
    14:00 +31°C° 0 mm 3 m/S 731 mmHg 40%
    15:00 +30°C° 0 mm 3 m/S 731 mmHg 44%
    16:00 +29°C° 0 mm 3 m/S 731 mmHg 49%
    17:00 +29°C° 0 mm 3 m/S 731 mmHg 53%
    18:00 +27°C° 0 mm 3 m/S 731 mmHg 58%
    19:00 +25°C° 0 mm 4 m/S 731 mmHg 64%
    20:00 +22°C° 0 mm 4 m/S 731 mmHg 69%
    21:00 +21°C° 0 mm 4 m/S 731 mmHg 70%
    22:00 +21°C° 0 mm 4 m/S 731 mmHg 70%
    23:00 +21°C° 0 mm 4 m/S 730 mmHg 71%
    Mehr zeigen